Regional Weather Roundup
Issued by NWS

Home | Current Version | Previous Version | Text Only | Print | Product List | Glossary Off
Versions: 1 2 3 4 5 6 7 8 9 10 11 12 13 14 15 16 17 18 19 20 21 22 23 24 25 26 27 28 29 30 31 32 33 34 35 36 37 38 39 40 41 42 43 44 45 46 47 48 49 50

000
ASUS43 KMPX 271310
RWRMN
WEATHER ROUNDUP FOR MINNESOTA
NATIONAL WEATHER SERVICE TWIN CITIES/CHANHASSEN MN
800 AM CDT SAT AUG 27 2016


NOTE: "FAIR" INDICATES FEW OR NO CLOUDS BELOW 12,000 FEET WITH NO
SIGNIFICANT WEATHER AND/OR OBSTRUCTIONS TO VISIBILITY. N/A MEANS
CURRENT SKY AND/OR WEATHER CONDITIONS ARE NOT AVAILABLE.

MNZ060>063-068>070-271400-
   Twin Cities Metro

CITY           SKY/WX    TMP DP  RH WIND       PRES   REMARKS
TWIN CITIES    LGT RAIN  64  59  83 SE7       30.07S
ST PAUL        CLOUDY    63  59  87 SE6       30.08R
CRYSTAL        CLOUDY    63  59  87 CALM      30.07R
BLAINE         CLOUDY    63  63 100 E6        30.08S
LAKEVILLE      LGT RAIN  61  61 100 E6        30.06F
EDEN PRAIRIE   LGT RAIN  64  60  87 E6        30.06S
LAKEVILLE      LGT RAIN  61  61 100 E6        30.06F
SOUTH ST PAUL  LGT RAIN  63  60  90 E3        30.07S
LAKE ELMO      CLOUDY    61  61 100 CALM      30.09S
$$
MNZ001>005-007-008-013>017-022>024-027-028-271400-
   Northwest Minnesota

CITY           SKY/WX    TMP DP  RH WIND       PRES   REMARKS
BEMIDJI        CLOUDY    59  57  94 SE7       30.04S
HALLOCK        CLOUDY    57  54  88 S7        29.94S
ROSEAU         CLOUDY    61  54  77 S7        29.97F
WARROAD        CLOUDY    61  55  82 S7        29.99S
THIEF RVR FALL LGT RAIN  60  57  89 S8        29.99S
CROOKSTON      LGT RAIN  59  57  94 S7          N/A
FOSSTON        RAIN      57  55  94 SE6       30.01S
DETROIT LAKES  PTSUNNY   61  59  94 SE9       30.02F
MOORHEAD       CLOUDY    61  57  88 SE9       29.98F
PARK RAPIDS    CLOUDY    60  56  86 SE8       30.05S
MAHNOMEN       CLOUDY    61  58  91 SE10      29.99F
$$
MNZ006-009>011-018-025>026-271400-
   North Central Minnesota

CITY           SKY/WX    TMP DP  RH WIND       PRES   REMARKS
BAUDETTE       CLOUDY    59  56  89 S6        30.01S
FLAG ISLAND    MOSUNNY   64  55  72 CALM      29.98S HAZE
INTL FALLS     MOSUNNY   59  55  87 VRB5      30.05S
WASKISH        CLOUDY    61  57  88 S5        30.03F
BIG FORK       CLOUDY    61  57  88 CALM      30.07S
LONGVILLE      CLOUDY    59  57  94 CALM      30.07R
GRAND RAPIDS   LGT RAIN  57  56  96 CALM      30.10S
CRANE LAKE     PTSUNNY   57  55  94 S1        30.09S
ORR            CLOUDY    57  54  88 CALM      30.06S
COOK           MOSUNNY   59  55  88 CALM      30.09R
WALKER         CLOUDY    60  56  87 S6        30.05F
$$
MNZ012-019>021-037-271400-
   Northeast Minnesota

CITY           SKY/WX    TMP DP  RH WIND       PRES   REMARKS
DULUTH         CLOUDY    59  57  93 E5        30.11R
ELY            PTSUNNY   57  54  88 CALM      30.10S
HIBBING        LGT RAIN  54  53  97 CALM      30.10R
EVELETH        CLOUDY    56  56  97 CALM      30.11S
DULUTH HARBOR  CLOUDY    63  57  82 CALM      30.10S
TWO HARBORS    CLOUDY    59  54  82 CALM      30.10R
SILVER BAY     MOSUNNY   55  55 100 CALM      30.10S
GRAND MARAIS     N/A     61  58  90 CALM      30.11S
G MARAIS ARPRT CLOUDY    57  54  88 CALM      30.15S FOG
$$
MNZ029>031-032-039>041-046>048-054>057-064-271400-
   West Central Minnesota

CITY           SKY/WX    TMP DP  RH WIND       PRES   REMARKS
FERGUS FALLS   CLOUDY    63  57  82 SE9       30.02F
WHEATON        CLOUDY    63  61  94 SE7       30.02S
MORRIS         CLOUDY    61  59  94 SE7       30.02S
ALEXANDRIA     CLOUDY    60  57  89 SE8       30.06S
ELBOW LAKE     CLOUDY    60  58  94 E7        30.02F
GLENWOOD       CLOUDY    59  57  94 SE5       30.06R
APPLETON       CLOUDY    63  57  82 SE3       30.03S
BENSON         CLOUDY    61  55  82 S6        30.04S
ORTONVILLE     CLOUDY    61  57  88 SE3       30.02R
MADISON        CLOUDY    61  59  94 SE5       30.03S
WILLMAR        PTSUNNY   63  61  94 CALM      30.06S
$$
MNZ033>034-036-042>043-049>051-058-059-271400-
   Central Minnesota

CITY           SKY/WX    TMP DP  RH WIND       PRES   REMARKS
ST CLOUD       LGT RAIN  59  59 100 E5        30.07S
SAUK CENTRE    CLOUDY    59  57  94 E6        30.06S
PAYNESVILLE    RAIN      60  60 100 CALM      30.07S
AITKIN         CLOUDY    61  55  82 CALM      30.07S
PINE RIVER     CLOUDY    59  59 100 CALM      30.10R
BRAINERD       CLOUDY    59  57  93 SE6       30.07S
STAPLES        CLOUDY    57  55  94 SE3       30.05F
LONG PRAIRIE   CLOUDY    57  55  94 E3        30.06S
LITTLE FALLS   PTSUNNY   57  54  88 E5        30.06F
LITCHFIELD     CLOUDY    63  61  94 SE3       30.07R
BUFFALO        LGT RAIN  60  58  92 NE5       30.08R
MAPLE LAKE     RAIN      62  61  96 CALM      30.08R
HUTCHINSON     CLOUDY    61  60  96 E6        30.07S
$$
MNZ037-044-045-052-053-271400-
   East Central Minnesota

CITY           SKY/WX    TMP DP  RH WIND       PRES   REMARKS
PRINCETON      LGT RAIN  61  57  88 E3        30.09R
MORA           RAIN      55  54  94 CALM      30.10S
CAMBRIDGE      RAIN      61  55  82 CALM      30.08R
RUSH CITY      LGT RAIN  58  56  92 CALM      30.10R
MOOSE LAKE     CLOUDY    57  55  94 CALM      30.08S
HINCKLEY       CLOUDY    59  57  94 E3        30.10R
CLOQUET        RAIN      57  54  88 CALM      30.10F
MCGREGOR       CLOUDY    55  54  94 CALM      30.09S
$$
MNZ071>073-080-081-089-090-097-098-271400-
   Southwest Minnesota

CITY           SKY/WX    TMP DP  RH WIND       PRES   REMARKS
MONTEVIDEO     LGT RAIN  61  61 100 S3        30.06R
GRANITE FALLS  DRIZZLE   61  60  94 SE3       30.07R
CANBY          LGT RAIN  61  59  92 CALM      30.05S
MARSHALL       LGT RAIN  61  59  94 CALM      30.05F
REDWOOD FALLS  RAIN      60  58  92 S5        30.06R FOG
OLIVIA         CLOUDY    59  57  94 CALM      30.05R
PIPESTONE      CLOUDY    61  57  88 E1        30.04S
WINDOM         RAIN      61  59  94 E5        30.05R
WORTHINGTON    CLOUDY    60  59  96 E6        30.05R FOG
JACKSON        LGT SNOW  61  59  94 SE5       30.05R VSB 3/4
TRACY          RAIN      60  59  98 CALM      30.05R
SLAYTON        CLOUDY    57  57 100 E6        30.05R
$$
MNZ065>067-074>077-082>085-091>093-271400-
   South Central Minnesota

CITY           SKY/WX    TMP DP  RH WIND       PRES   REMARKS
MANKATO        CLOUDY    63  57  82 E6        30.06R
NEW ULM        DRIZZLE   61  61 100 SE6       30.05R
ST JAMES       DRIZZLE   55  55 100 NE5       30.06S
FAIRMONT       LGT RAIN  60  59  96 E6        30.04S
GLENCOE        LGT RAIN  62  62  99 E7        30.06S
FARIBAULT      RAIN      61  61 100 CALM      30.07S
OWATONNA       RAIN      61  57  88 NE3       30.07R
WASECA         RAIN      59  57  94 E6        30.06F
ALBERT LEA     LGT RAIN  63  59  88 SE5       30.05S
$$
MNZ078>079-086>088-094>096-271400-
   Southeast Minnesota

CITY           SKY/WX    TMP DP  RH WIND       PRES   REMARKS
ROCHESTER      CLOUDY    61  59  93 E10       30.06S
RED WING       CLOUDY    64  59  82 E3        30.08R
STANTON        CLOUDY    63  59  88 CALM      30.06S
DODGE CENTER   LGT RAIN  61  59  94 E7        30.06S
WINONA         CLOUDY    63  59  88 SE7       30.07F
AUSTIN         CLOUDY    61  57  88 E6        30.05R
PRESTON        CLOUDY    60  56  89 E8        30.07S
$$
ABBREVIATIONS USED IN REMARKS
   TC - TEMPERATURES IN CELSIUS
  WCI - WIND CHILL INDEX
   HX - HEAT INDEX
  VSB - VISIBILITY
$$




USA.gov is the U.S. government's official web portal to all federal, state and local government web resources and services.